This is the latest recevied weather packets stored in our database for station/object WA7CUG. If no packets are shown the sender has not sent any weather packets the latest 10 day(s).
| Time | Temp. | Humidity | Pressure | Rain* | Wind** | Luminosity | Snow |
|---|---|---|---|---|---|---|---|
| 1777627821 | 8.89° C | 68% | 1019.1 hPa | 0 mm | - | 0 W/m² | - |
| 1777627520 | 8.89° C | 68% | 1018.9 hPa | 0 mm | - | 0 W/m² | - |
| 1777627215 | 8.89° C | 67% | 1019 hPa | 0 mm | - | 0 W/m² | - |
| 1777626912 | 9.44° C | 65% | 1019 hPa | 0 mm | - | 0 W/m² | - |
| 1777626609 | 9.44° C | 66% | 1018.9 hPa | 0 mm | - | 0 W/m² | - |
| 1777626309 | 8.89° C | 67% | 1018.9 hPa | 0 mm | - | 0 W/m² | - |
| 1777626008 | 9.44° C | 66% | 1018.8 hPa | 0 mm | - | 0 W/m² | - |
| 1777625703 | 9.44° C | 66% | 1019 hPa | 0 mm | - | 0 W/m² | - |
| 1777625398 | 9.44° C | 66% | 1018.8 hPa | 0 mm | - | 0 W/m² | - |
| 1777625095 | 9.44° C | 65% | 1018.9 hPa | 0 mm | - | 0 W/m² | - |
| 1777624791 | 10° C | 65% | 1018.8 hPa | 0 mm | - | 0 W/m² | - |
| 1777624486 | 10.56° C | 63% | 1018.8 hPa | 0 mm | - | 0 W/m² | - |
| 1777624185 | 10.56° C | 60% | 1018.6 hPa | 0 mm | - | 0 W/m² | - |
| 1777623881 | 10° C | 61% | 1018.6 hPa | 0 mm | - | 0 W/m² | - |
| 1777623577 | 10° C | 63% | 1018.8 hPa | 0 mm | - | 0 W/m² | - |
| 1777623276 | 10° C | 66% | 1018.8 hPa | 0 mm | - | 0 W/m² | - |
| 1777622972 | 10° C | 65% | 1018.8 hPa | 0 mm | - | 0 W/m² | - |
| 1777622669 | 10° C | 66% | 1018.9 hPa | 0 mm | - | 0 W/m² | - |
| 1777622365 | 10.56° C | 63% | 1018.8 hPa | 0 mm | - | 0 W/m² | - |
| 1777622062 | 10.56° C | 63% | 1018.9 hPa | 0 mm | - | 0 W/m² | - |
| 1777621757 | 11.11° C | 61% | 1018.9 hPa | 0 mm | - | 0 W/m² | - |
| 1777621454 | 11.11° C | 58% | 1018.9 hPa | 0 mm | - | 0 W/m² | - |
| 1777621149 | 10.56° C | 60% | 1018.6 hPa | 0 mm | - | 0 W/m² | - |
| 1777620846 | 10° C | 62% | 1018.5 hPa | 0 mm | - | 0 W/m² | - |
| 1777620542 | 10.56° C | 62% | 1018.8 hPa | 0 mm | - | 0 W/m² | - |
* Rain latest hour (hover to see other rain measurements)
** Current wind speed in m/s (hover to see current wind gust speed)